EW6762 Weather Reports


Display with metric or nautical units.
time (UTC)temp
F
wind
direction
speed
MPH
gust
MPH
rain 1hr
in
rain 24hr
in
rain mn
in
humidity
%
barometer
mb
20260509072340 60 105 1.0 2.0 0.00 0.04 0.00 88 1015.1
20260509071314 60 137 1.0 5.0 0.00 0.04 0.00 87 1015.2
20260509070315 60 171 1.0 3.0 0.00 0.04 0.00 87 1015.1
20260509065325 60 142 1.0 3.0 0.00 0.04 0.00 87 1015.3
20260509064322 61 135 1.0 3.0 0.00 0.04 0.00 86 1015.4
20260509063312 61 107 1.0 2.0 0.00 0.04 0.00 85 1015.6
20260509062331 61 140 1.0 3.0 0.00 0.04 0.00 85 1015.6
20260509061329 62 147 2.0 3.0 0.00 0.04 0.00 84 1015.7
20260509060322 62 136 1.0 2.0 0.00 0.04 0.00 84 1015.7
20260509055315 62 148 1.0 3.0 0.00 0.04 0.00 83 1015.8
20260509054311 62 146 2.0 4.0 0.00 0.04 0.00 83 1016.2
20260509053326 63 155 2.0 3.0 0.00 0.04 0.00 82 1016.2
20260509052327 63 155 2.0 6.0 0.00 0.04 0.00 82 1016.3
20260509051322 63 134 1.0 5.0 0.00 0.04 0.00 82 1016.4
20260509050318 63 139 2.0 6.0 0.00 0.04 0.00 81 1016.3
20260509045318 63 163 2.0 5.0 0.00 0.04 0.00 81 1016.6
20260509044317 63 144 4.0 7.0 0.00 0.04 0.00 81 1016.5
20260509043313 63 180 3.0 7.0 0.00 0.04 0.00 80 1016.6
20260509042313 63 123 3.0 7.0 0.00 0.04 0.00 80 1016.5
20260509041324 63 153 2.0 8.0 0.00 0.04 0.00 79 1016.6
20260509040324 63 144 3.0 7.0 0.00 0.04 0.00 79 1016.6
20260509035318 63 133 3.0 7.0 0.00 0.04 0.01 78 1016.7
20260509034324 64 127 2.0 6.0 0.00 0.04 0.01 77 1016.6
20260509033321 64 129 2.0 6.0 0.00 0.04 0.01 76 1016.6
20260509032340 64 148 3.0 7.0 0.00 0.04 0.01 76 1016.8
20260509031315 64 127 2.0 6.0 0.00 0.04 0.01 76 1016.8
20260509030337 64 113 3.0 5.0 0.00 0.04 0.01 76 1016.9
20260509025311 64 148 3.0 7.0 0.00 0.08 0.01 75 1016.9
20260509024332 64 140 4.0 7.0 0.00 0.08 0.01 76 1016.9
20260509023326 65 155 3.0 7.0 0.00 0.08 0.01 75 1016.9
20260509022324 65 144 3.0 8.0 0.00 0.08 0.01 74 1017.0
20260509021348 65 104 3.0 7.0 0.00 0.08 0.01 73 1016.8
20260509020321 66 136 3.0 8.0 0.00 0.08 0.01 71 1016.9
20260509015323 66 155 4.0 7.0 0.00 0.20 0.01 67 1016.8
20260509014322 67 153 1.0 3.0 0.00 0.20 0.01 65 1016.7
20260509013326 67 154 1.0 3.0 0.00 0.20 0.01 65 1016.4
20260509012321 67 163 1.0 3.0 0.00 0.20 0.01 63 1016.3
20260509011319 67 191 2.0 4.0 0.00 0.20 0.01 63 1016.2
20260509010320 68 171 1.0 4.0 0.00 0.20 0.01 62 1016.0
20260509005338 68 173 2.0 3.0 0.00 1.22 0.01 61 1016.0
20260509004317 68 189 1.0 3.0 0.00 1.22 0.01 60 1015.8
20260509003311 68 149 1.0 3.0 0.00 1.22 0.01 60 1015.7
20260509002309 69 103 1.0 3.0 0.00 1.22 0.01 59 1015.7
20260509001309 69 108 2.0 3.0 0.00 1.22 0.01 60 1015.5
20260509000352 70 153 1.0 3.0 0.00 1.22 0.01 59 1015.3
20260508235309 70 146 2.0 3.0 0.00 1.22 0.01 57 1015.4
20260508234326 71 147 2.0 3.0 0.00 1.22 0.01 56 1015.5
20260508233349 71 184 2.0 4.0 0.00 1.22 0.01 55 1015.5
20260508232330 71 132 1.0 4.0 0.00 1.22 0.01 55 1015.7
20260508231327 72 144 2.0 5.0 0.00 1.22 0.01 54 1015.4
20260508230348 72 144 1.0 4.0 0.00 1.22 0.01 55 1015.5
20260508225322 72 147 2.0 5.0 0.00 1.22 0.01 53 1015.6
20260508224323 73 144 2.0 6.0 0.00 1.22 0.01 51 1015.5
20260508223323 73 142 2.0 5.0 0.00 1.22 0.01 50 1015.4
20260508222345 74 119 2.0 4.0 0.00 1.22 0.01 49 1015.3
20260508221319 75 81 1.0 4.0 0.00 1.22 0.01 50 1015.3
20260508220317 75 121 3.0 7.0 0.00 1.22 0.01 48 1015.3
20260508215319 75 38 3.0 5.0 0.00 1.22 0.01 48 1015.2
20260508214315 76 95 4.0 8.0 0.00 1.22 0.01 46 1015.3
20260508213311 76 114 2.0 4.0 0.00 1.22 0.01 45 1015.0
20260508212313 77 96 2.0 6.0 0.00 1.22 0.01 44 1015.0
20260508211310 78 153 2.0 6.0 0.00 1.22 0.01 41 1015.1
20260508210315 79 102 3.0 7.0 0.00 1.22 0.01 42 1015.4
20260508205312 78 113 3.0 7.0 0.00 1.22 0.01 44 1015.5
20260508204309 77 140 3.0 8.0 0.00 1.22 0.01 41 1015.7
20260508203310 79 209 3.0 7.0 0.00 1.22 0.01 42 1015.8
20260508202323 78 203 3.0 6.0 0.00 1.22 0.01 42 1015.8
20260508201348 78 67 4.0 8.0 0.00 1.22 0.01 42 1015.8
20260508200323 78 75 3.0 10.0 0.00 1.22 0.01 41 1016.1
20260508195324 78 112 2.0 6.0 0.00 1.22 0.01 43 1016.0
20260508194315 78 293 2.0 5.0 0.00 1.22 0.01 45 1016.2
20260508193333 77 64 3.0 8.0 0.00 1.22 0.01 44 1016.3
20260508192309 76 119 4.0 7.0 0.00 1.22 0.01 44 1016.6
20260508191325 76 142 2.0 6.0 0.00 1.22 0.01 43 1016.6
20260508190328 76 254 3.0 5.0 0.00 1.22 0.01 42 1016.7
20260508185323 77 86 5.0 9.0 0.00 1.26 0.01 45 1016.7
20260508184319 76 193 2.0 6.0 0.00 1.26 0.01 47 1016.9
20260508183309 75 32 4.0 6.0 0.00 1.26 0.01 50 1017.1
20260508182310 75 5 1.0 6.0 0.00 1.26 0.01 43 1017.2
20260508181327 75 132 2.0 5.0 0.00 1.26 0.01 45 1017.5
20260508180328 75 271 2.0 7.0 0.00 1.26 0.01 42 1017.5
20260508175320 75 156 2.0 7.0 0.00 1.26 0.01 45 1017.6
20260508174314 74 142 1.0 8.0 0.00 1.26 0.01 42 1017.6
20260508173315 73 106 2.0 8.0 0.00 1.26 0.01 45 1017.8
20260508172356 74 142 3.0 8.0 0.00 1.26 0.01 47 1018.0
20260508171357 74 183 2.0 12.0 0.00 1.26 0.01 48 1018.0
20260508170331 74 160 4.0 11.0 0.00 1.26 0.01 45 1017.9
20260508165330 74 117 5.0 11.0 0.00 1.50 0.01 48 1018.0
20260508164339 73 41 3.0 9.0 0.00 1.50 0.01 51 1018.3
20260508163339 73 18 5.0 10.0 0.00 1.50 0.01 51 1018.6
20260508162311 72 78 3.0 9.0 0.00 1.50 0.01 53 1018.6
20260508161317 71 128 6.0 10.0 0.00 1.50 0.01 51 1018.6
20260508160311 72 325 3.0 12.0 0.00 1.50 0.01 53 1018.7
20260508155330 73 72 4.0 10.0 0.00 1.69 0.01 54 1018.8
20260508154320 72 144 4.0 10.0 0.00 1.69 0.01 56 1018.9
20260508153316 71 65 4.0 9.0 0.00 1.69 0.01 59 1018.8
20260508152351 70 38 7.0 12.0 0.00 1.69 0.01 57 1018.8
20260508151318 69 113 5.0 10.0 0.00 1.69 0.01 64 1018.8
20260508150334 68 342 4.0 9.0 0.00 1.69 0.01 67 1018.9
20260508145321 67 347 6.0 12.0 0.00 1.97 0.01 63 1018.9
20260508144338 67 355 2.0 11.0 0.00 1.97 0.01 70 1019.0
20260508143326 66 5 3.0 10.0 0.00 1.97 0.01 66 1018.8
20260508142324 65 325 7.0 11.0 0.04 1.97 0.01 68 1018.8
20260508141316 65 31 3.0 7.0 0.04 1.97 0.01 73 1018.8
20260508140332 64 346 2.0 8.0 0.04 1.97 0.01 79 1018.8
20260508135319 63 344 4.0 7.0 0.04 1.97 0.01 79 1018.9
20260508134335 62 26 2.0 9.0 0.04 1.97 0.01 80 1018.8
20260508133324 61 285 2.0 8.0 0.04 1.97 0.01 85 1018.7
20260508132319 60 18 2.0 6.0 0.00 1.93 0.00 89 1018.6
20260508131308 58 355 3.0 8.0 0.00 1.93 0.00 91 1018.5
20260508130324 58 348 3.0 8.0 0.00 1.93 0.00 92 1018.4
20260508125318 57 281 4.0 8.0 0.00 1.97 0.00 94 1018.4
20260508124312 57 360 2.0 6.0 0.00 1.97 0.00 94 1018.4
20260508123317 57 338 3.0 6.0 0.00 1.97 0.00 95 1018.4
20260508122342 57 349 2.0 8.0 0.00 1.97 0.00 95 1018.1
20260508121315 57 282 3.0 5.0 0.00 1.97 0.00 96 1018.0
20260508120333 56 321 2.0 4.0 0.00 1.97 0.00 96 1017.9
20260508115308 56 325 1.0 5.0 0.00 2.20 0.00 96 1017.8
20260508114310 56 347 2.0 4.0 0.00 2.20 0.00 96 1017.9
20260508113350 56 321 1.0 4.0 0.00 2.20 0.00 96 1017.7
20260508112323 56 284 2.0 4.0 0.00 2.20 0.00 96 1017.6
20260508111314 56 311 1.0 4.0 0.00 2.20 0.00 96 1017.3
20260508110312 56 309 1.0 4.0 0.00 2.20 0.00 96 1017.1
20260508105326 56 333 2.0 4.0 0.00 2.36 0.00 96 1017.0
20260508104325 56 291 2.0 4.0 0.00 2.36 0.00 96 1016.9
20260508103318 56 339 1.0 5.0 0.00 2.36 0.00 96 1016.6
20260508102315 56 312 2.0 4.0 0.00 2.36 0.00 96 1016.6
20260508101314 55 343 1.0 3.0 0.00 2.36 0.00 96 1016.5
20260508100310 55 350 1.0 5.0 0.00 2.36 0.00 96 1016.3
20260508095325 55 332 1.0 4.0 0.00 2.72 0.00 96 1016.1
20260508094320 55 5 3.0 5.0 0.00 2.72 0.00 95 1015.9
20260508093311 55 285 2.0 5.0 0.00 2.72 0.00 95 1015.9
20260508092333 56 304 2.0 3.0 0.00 2.72 0.00 95 1016.1
20260508091310 55 316 0.0 4.0 0.00 2.72 0.00 96 1015.8
20260508090332 55 347 2.0 4.0 0.00 2.72 0.00 95 1015.9
20260508085309 55 342 1.0 2.0 0.00 3.54 0.00 95 1015.9
20260508084320 55 281 0.0 3.0 0.00 3.54 0.00 95 1015.6
20260508083322 55 298 1.0 2.0 0.00 3.54 0.00 95 1015.5
20260508082312 56 321 0.0 2.0 0.00 3.54 0.00 95 1015.3
20260508081309 56 321 1.0 2.0 0.00 3.54 0.00 95 1015.4
20260508080325 56 311 1.0 2.0 0.00 3.54 0.00 95 1015.1
20260508075327 56 296 1.0 2.0 0.00 3.74 0.00 95 1015.1
20260508074318 56 284 1.0 2.0 0.00 3.74 0.00 95 1015.0
20260508073312 56 277 2.0 3.0 0.00 3.74 0.00 95 1014.9